Find Starlink 31157

NORAD ID: 58735 Int'l Des: 2024-005 Owner: SPXS Country: US Constellation: starlink operational
LEOCIRCULAR

Live-Position

3D-Globus wird geladen...

Über Starlink 31157

Beschreibung wird geladen...

Nächste Überflüge

Passes for default location (London). Set your location on the main map for personalized predictions.

Höhenverlauf

Loading altitude history...

Zweizeiliger Elementsatz

1 58735U 24005H 26122.41825164 .00000782 00000-0 37932-4 0 9998
2 58735 43.0048 276.0721 0001923 255.4387 104.6252 15.27582364128669
Epoch: 2. Mai 2026 • Age: 10 hours

Aktueller Status

Höhe 484.3 km
Geschwindigkeit 7.62 km/s
Subsatellitenpunkt -11.16°S, 59.6°W
Startdatum 7. Jan. 2024
Alter 2.3 years
Typ internet

Technische Details

Klassifizierung Payload
Masse 730.00 kg
Trockenmasse 700.00 kg
Gesamtmasse 730.00 kg
Länge 0.30 m
Durchmesser 4.10 m
Spannweite 29.00 m
Form Box + pan
Hersteller SPXS
Bus-Typ Starlink V2M
Phasenstatus In Orbit
Besitzer/Staat SPXS/US

Most Searched